sat.trackr.live / text

‹ back to catalog

STARLINK-34552

NORAD 64731 · 2025-144H

PAYLOAD ACTIVE UNKNOWN

§ Identity

Operator
Country
US
Launch date
2025-07-02
Launch site
AFETR
Launch vehicle
Mass (kg)
RCS (m²)

Purposes: comms

External: N2YO · Heavens-Above · Gunter

§ Orbital elements

Epoch: 2026-05-24T20:08:20.380992Z

Period
94.10 min
Inclination
53.1596°
Eccentricity
0.0001460
Mean motion
15.30213187 rev/d
Perigee alt
474.2 km
Apogee alt
476.2 km
Semi-major
6,853.3 km
B*
2.3527e-4
RAAN
187.1200°
Arg perigee
86.8329°
Mean anomaly
273.2838°
Rev number
5,137

§ Raw data

STARLINK-345521 64731U 25144H   26144.83912478  .00006618  00000+0  23527-3 0  99982 64731  53.1596 187.1200 0001460  86.8329 273.2838 15.30213187 51378

JSON: /api/v1/satellites/64731 · /tle

For live sub-satellite position, see the globe view (requires WebGL).

§ Visibility from observer

Set your observer location to see the next 7 days of passes ≥ 10°. The values pass through the URL so the page stays shareable.

No JS? Fill the form by hand. The geolocation button needs JavaScript.